Oak Ridge, TN

7:12 PM EST on November 20, 2019 (GMT -0500)
Oak Ridge

Weather History for KOQT - September, 2019

Change the Weather History Date:

Saturday, September 7, 2019

  Actual Average (WUND) Record (WUND)
Temperature  
Mean Temperature 78 °F -  
Max Temperature 90 °F - - (-1)
Min Temperature 68 °F - - (-1)
Cooling Degree Days 14    
Growing Degree Days 28 (Base 50)    
Moisture  
Dew Point 63 °F    
Average Humidity 63    
Maximum Humidity 87    
Minimum Humidity 36    
Precipitation  
Precipitation 0.00 in - - ()
Sea Level Pressure  
Sea Level Pressure 29.94 in    
Wind  
Wind Speed 0 mph ()    
Max Wind Speed 6 mph    
Max Gust Speed -    
Visibility 10.0 miles    
Events      
Averages and records for this station are not official NWS values.
T = Trace of Precipitation, MM = Missing Value Source: Averaged Metar Reports

Daily Weather History Graph

Daily Weather History Graph

Search for Another Location

Airport or City:

Astronomy

Sep. 07, 2019 Rise Set
Actual Time 7:13 AM EDT 7:56 PM EDT
Civil Twilight 6:47 AM EDT 8:22 PM EDT
Nautical Twilight 6:16 AM EDT 8:52 PM EDT
Astronomical Twilight 5:45 AM EDT 9:24 PM EDT
Moon 4:02 PM EDT (9/7) 1:12 AM EDT (9/7)
Length of Visible Light 13h 34m
Length of Day
12h 43m
Waxing Gibbous, 65% of the Moon is Illuminated
Sep 7
Waxing Gibbous
Sep 14
Full
Sep 21
Last Quarter
Sep 28
New
Oct 5
First Quarter

Hourly Weather History & Observations

Time (EDT) Temp. Heat Index Dew Point Humidity Pressure Visibility Wind Dir Wind Speed Gust Speed Precip Events Conditions
12:53 AM 73.9 °F - 64.0 °F 71% 29.90 in 10.0 mi Calm Calm - N/A   Scattered Clouds
1:53 AM 73.0 °F - 64.0 °F 73% 29.90 in 10.0 mi Calm Calm - N/A   Mostly Cloudy
2:53 AM 73.0 °F - 64.0 °F 73% 29.89 in 10.0 mi Calm Calm - N/A   Partly Cloudy
3:53 AM 71.1 °F - 64.0 °F 78% 29.90 in 10.0 mi Calm Calm - N/A   Clear
4:53 AM 71.1 °F - 64.9 °F 81% 29.91 in 10.0 mi Calm Calm - N/A   Clear
5:53 AM 68.0 °F - 64.0 °F 87% 29.93 in 10.0 mi Calm Calm - N/A   Clear
6:53 AM 68.0 °F - 64.0 °F 87% 29.95 in 10.0 mi Calm Calm - N/A   Clear
7:53 AM 68.0 °F - 64.0 °F 87% 29.96 in 10.0 mi Calm Calm - N/A   Clear
8:53 AM 73.0 °F - 66.0 °F 79% 29.98 in 10.0 mi Calm Calm - N/A   Clear
9:53 AM 77.0 °F - 64.9 °F 66% 29.98 in 10.0 mi Calm Calm - N/A   Clear
10:53 AM 80.1 °F 81.2 °F 62.1 °F 54% 29.99 in 10.0 mi Calm Calm - N/A   Partly Cloudy
11:53 AM 81.0 °F 81.9 °F 62.1 °F 52% 29.98 in 10.0 mi SE 4.6 mph - N/A   Clear
12:53 PM 82.9 °F 83.3 °F 61.0 °F 47% 29.96 in 10.0 mi Calm Calm - N/A   Scattered Clouds
1:53 PM 84.0 °F 84.0 °F 60.1 °F 44% 29.95 in 10.0 mi Calm Calm - N/A   Partly Cloudy
2:53 PM 86.0 °F 85.7 °F 60.1 °F 41% 29.93 in 10.0 mi Calm Calm - N/A   Clear
3:53 PM 87.1 °F 87.0 °F 61.0 °F 41% 29.92 in 10.0 mi Calm Calm - N/A   Clear
4:53 PM 89.1 °F 88.2 °F 59.0 °F 36% 29.91 in 10.0 mi NW 5.8 mph - N/A   Overcast
5:53 PM 89.1 °F 89.0 °F 61.0 °F 39% 29.91 in 10.0 mi North 3.5 mph - N/A   Partly Cloudy
6:53 PM 86.0 °F 85.7 °F 60.1 °F 41% 29.92 in 10.0 mi Variable 4.6 mph - N/A   Scattered Clouds
7:53 PM 81.0 °F 81.9 °F 62.1 °F 52% 29.94 in 10.0 mi Calm Calm - N/A   Partly Cloudy
8:53 PM 77.0 °F - 63.0 °F 62% 29.96 in 10.0 mi Calm Calm - N/A   Clear
9:53 PM 73.9 °F - 62.1 °F 66% 29.97 in 10.0 mi Calm Calm - N/A   Clear
10:53 PM 71.1 °F - 62.1 °F 73% 29.99 in 10.0 mi Calm Calm - N/A   Clear
11:53 PM 69.1 °F - 62.1 °F 78% 29.99 in 10.0 mi Calm Calm - N/A   Clear